Miscellaneous Local Product
Issued by NWS North Platte, NE

Home | Current Version | Previous Version | Text Only | Print | Product List | Glossary On
Versions: 1 2 3 4 5 6 7 8 9 10 11 12 13 14 15 16 17 18 19 20 21 22 23 24 25 26 27 28 29 30 31 32 33 34 35 36 37 38 39 40 41 42 43 44 45 46 47 48 49 50
903
AXUS43 KLBF 292110
MISLBF


WESTERN AND NORTH CENTRAL NEBRASKA HOURLY WEATHER ROUNDUP
NATIONAL WEATHER SERVICE NORTH PLATTE NE
400 PM CDT SAT APR 29 2017

NOTE: "FAIR" INDICATES FEW OR NO CLOUDS BELOW 12,000 FEET WITH NO
SIGNIFICANT WEATHER AND/OR OBSTRUCTIONS TO VISIBILITY.

NOTE: STATIONS NOT REPORTING VARIABLES SUCH AS SKY/WEATHER OR
PRESSURE ARE PROVIDED BY RAWS AND APRS NETWORKS AND ARE NOT UNDER
NATIONAL WEATHER SERVICE QUALITY CONTROL.

...OBSERVATIONS IN AND NEAR THE EASTERN PANHANDLE OF NEBRASKA...

CITY           SKY/WX    TMP DP  RH WIND       PRES   REMARKS
PINE RIDGE     MOSUNNY   52  21  29 N16G22    30.20F
CHADRON        CLOUDY    51  26  37 N13G21    30.20F
ALLIANCE       CLOUDY    48  22  35 NE16G29   30.15F
SIDNEY         CLOUDY    42  19  39 NE23      30.15F
CRESCENT LAKE    N/A     46  18  32 NE16G29     N/A
$$

...OBSERVATIONS IN NORTHERN NEBRASKA AND FAR SOUTHERN SOUTH DAKOTA...

CITY           SKY/WX    TMP DP  RH WIND       PRES   REMARKS
WINNER         FAIR      56  21  25 NE18G24   30.19F
VALENTINE      CLOUDY    56  12  17 NE22G31   30.15F
THEDFORD       PTSUNNY   51  23  33 NE22G30   30.14S
AINSWORTH      CLOUDY    51  24  34 NE28      30.14F
O`NEILL        CLOUDY    52  23  31 NE21G31   30.12F
ORD            CLOUDY    46  28  49 NE22G29   30.08F
BROKEN BOW     CLOUDY    46  29  51 NE22G31   30.09F
VALENTINE NWR    N/A     49  17  28 NE13G23     N/A
HALSEY           N/A     48  20  32 NE9G22      N/A
BUTTE            N/A     53  22  29 N20G26      N/A
CHAMBERS         N/A     52  29  40 E6          N/A
EWING            N/A     47  32  55 NE8         N/A
$$

...OBSERVATIONS IN SOUTHWEST NEBRASKA AND FAR NORTHEAST COLORADO...

CITY           SKY/WX    TMP DP  RH WIND       PRES   REMARKS
HOLYOKE        FAIR      45  27  49 N24G35    30.13R
IMPERIAL       CLOUDY    44  23  43 NE25G35   30.10F
OGALLALA       CLOUDY    49  19  30 NE22      30.12F
NORTH PLATTE   CLOUDY    46  26  45 NE23G32   30.12F
MCCOOK         CLOUDY    41  35  79 N23G31    30.05F
LEXINGTON      CLOUDY    42  33  71 N25G31    30.05F
STAPLETON        N/A     44  24  45 N6G18       N/A
GOTHENBURG       N/A     42  28  58 N16         N/A
CALLAWAY         N/A     42  30  63 NE20        N/A
$$

...OBSERVATIONS IN CENTRAL LINCOLN COUNTY AREA...

CITY           SKY/WX    TMP DP  RH WIND       PRES   REMARKS
N.P. AIRPORT   CLOUDY    46  26  45 NE23G32   30.12F
N.P. DOWNTOWN    N/A     43  25  49 NE18G26     N/A
N.P. SOUTHEAST   N/A     44  26  48 NE8G20      N/A
N.P. HILLCREST   N/A     44  26  49 NE20G28     N/A
$$

...SOME OBSERVATIONS FROM AROUND THE REGION...

CITY           SKY/WX    TMP DP  RH WIND       PRES   REMARKS
DENVER         SNOW      30  27  88 N17       30.17S VSB 1/2 WCI  18
LIMON          LGT SNOW  30  27  88 N25G38    30.07F VSB 3/4 WCI  16
ASPEN          CLOUDY    36  22  56 N10       30.02F WCI  28
LARAMIE        CLOUDY    26  12  55 E5        30.16S WCI  20
CASPER         SUNNY     44  16  32 VRB5      30.21F
CHEYENNE       CLOUDY    32  16  51 N16       30.17R WCI  21
SCOTTSBLUFF    CLOUDY    44  25  47 N16       30.20F
GRAND ISLAND   CLOUDY    45  33  63 NE30G40   30.01F
OMAHA          CLOUDY    46  36  68 NE25G35   29.99F
SIOUX FALLS    CLOUDY    54  23  30 E23G31    30.15F
PIERRE         MOSUNNY   59  18  20 NE8       30.22F
RAPID CITY     MOSUNNY   55  19  24 VRB3      30.23F
BISMARCK       SUNNY     63  17  17 VRB3      30.26S
KANSAS CITY    LGT RAIN  48  46  93 E22G36    29.67F
HILL CITY      LGT RAIN  40  37  89 N28G43    29.97F FOG     WCI  29
WICHITA        CLOUDY    47  46  97 N14G23    29.76R FOG
DODGE CITY     LGT RAIN  39  37  92 N32G41    29.83S FOG     WCI  27
OKLAHOMA CITY  LGT RAIN  55  46  71 N16       29.66S
DALLAS         PTSUNNY   82  64  54 NW17      29.52R
AMARILLO       CLOUDY    36  34  92 N21G32    29.86F WCI  25
$$




USA.gov is the U.S. government's official web portal to all federal, state and local government web resources and services.